OCO 2

Last updated on Mon Sep 21 2026 00:03:33 GMT+0000 (Coordinated Universal Time)

1 40059U 14035A 26263.53699408 .00000223 00000+0 59643-4 0 9991 2 40059 98.2074 203.3990 0001605 75.2452 284.8924 14.57092780649934
UTC large
Height (km)
Speed (km/s)
/
Latitude / Longitude
Inclination (degrees)
Orbital Period (minutes)
Azimuth
Elevation
Range (km)
Doppler Factor

Next 0 passes for location: London (51.5072 / 0.1276)

No passes found over London.
OCO 2